Location: *
(28.2280°N, 26.3410°E)
Time: 21:36:02
(UTC+00:00)

Daily predictions for brighter satellites

Satellite Brightness Start Highest point End
(mag) Time Altitude Azimuth Time Altitude Azimuth Time Altitude Azimuth
Mugunghwa Rocket 4.0 16:41:43 10° W 16:48:07 76° S 16:54:25 10° E
Cosmos 2263 Rocket 4.0 16:43:53 10° NW 16:49:04 37° WSW 16:54:13 10° S
Cosmos 2173 Rocket 4.2 16:44:49 10° S 16:51:06 83° W 16:57:30 10° N
TIMED 4.4 16:47:21 10° NNW 16:51:40 83° ENE 16:55:56 10° SSE
Cosmos 1459 Rocket 4.1 16:47:02 10° S 16:53:06 85° W 16:59:09 10° N
Cosmos 1842 Rocket 3.5 16:48:56 10° N 16:53:15 73° E 16:57:32 10° S
IUS-7 SRM-1 3.9 16:51:23 10° SW 16:53:49 32° SSE 17:00:31 10° E
Cosmos 1354 Rocket 4.4 16:49:01 10° NNW 16:54:18 73° WSW 16:59:35 10° S
Meteor 1-25 Rocket 4.3 16:50:45 10° S 16:56:31 90° W 17:02:13 10° N
CZ-2C R/B 3.5 16:53:34 10° S 16:57:03 52° W 17:00:30 10° NNW
Cosmos 2292 Rocket 4.4 16:54:40 10° NNE 16:57:15 18° ENE 16:59:33 10° ESE
SL-08 R/B 3.4 16:56:10 10° NNE 17:01:02 64° E 17:05:54 10° S
Cosmos 1818 3.8 16:56:25 10° S 17:01:35 48° ESE 17:06:50 10° NE
Cosmos 1844 4.1 17:01:09 10° N 17:06:23 40° ENE 17:11:34 10° SE
ADEOS 4.1 17:02:48 10° SE 17:07:32 37° ENE 17:12:17 10° N
Cosmos 292 Rocket 3.8 17:03:25 10° N 17:08:04 60° ENE 17:12:42 10° SSE
CZ-4B R/B 4.3 17:08:16 13° ESE 17:09:53 17° ENE 17:12:19 10° NNE
Kosmos-1783 3.6 17:06:06 10° SSW 17:10:41 52° ESE 17:13:26 10° NE
CBERS 1 LM4 rocket 4.4 17:06:35 10° SSE 17:11:17 62° ENE 17:16:10 10° N
BREEZE-M DEB (TANK) 4.2 17:09:43 10° NNW 17:12:19 35° NE 17:16:43 14° ESE
Meteor 2-16 Rocket 4.5 17:06:38 10° N 17:12:43 89° W 17:18:49 10° S
Helios 1B rocket 2.7 17:08:54 10° S 17:12:44 66° WSW 17:16:35 10° NNW
Cosmos 1151 Rocket 4.0 17:11:23 10° NNE 17:14:56 25° E 17:17:52 13° SE
Aureole 1 Rocket 3.6 17:14:01 10° N 17:17:22 27° ENE 17:18:58 19° ESE
Cosmos 1725 Rocket 4.1 17:11:42 10° S 17:17:53 84° W 17:24:05 10° N
Cosmos 841 Rocket 3.6 17:13:54 10° SSW 17:19:07 81° WNW 17:24:20 10° NNE
Cosmos 1626 2.2 17:18:12 10° NNE 17:20:59 34° E 17:22:42 18° SE
Cosmos 1743 2.9 17:17:58 10° SSE 17:21:21 41° E 17:24:44 10° NNE
Cosmos 990 Rocket 4.0 17:20:13 10° NNW 17:25:26 82° WSW 17:30:35 10° S
Cosmos 2360 Rocket 4.0 17:21:10 10° SW 17:26:16 35° WNW 17:31:23 10° N
Cosmos 1766 Rocket 4.2 17:29:56 11° SSE 17:33:37 32° E 17:37:28 10° NNE
SPOT 1/Viking Rocket 3.5 17:29:23 10° SSE 17:34:31 67° ENE 17:39:40 10° N
USA 306 1.7 17:32:28 10° SW 17:35:06 81° SE 17:37:19 18° NE
Helios 1A 3.5 17:33:01 10° N 17:37:00 58° WNW 17:40:57 10° SSW
Cosmos 2333 Rocket 4.4 17:34:20 10° SW 17:39:16 29° WNW 17:44:14 10° N
Cosmos 2061 Rocket 4.2 17:33:09 10° S 17:39:30 80° W 17:45:57 10° N
Intercosmos 24 4.4 17:39:38 10° NNW 17:43:18 63° W 17:47:56 10° S
YAOGAN 1 4.3 17:40:06 10° SSW 17:43:55 32° W 17:47:47 10° NW
ISS -1.2 17:44:07 10° S 17:44:17 11° S 17:44:17 11° S
NOSS 3-1 (A) 4.3 17:39:10 10° NNW 17:47:22 87° WSW 17:56:44 10° SSE
Cosmos 2219 Rocket 3.3 17:42:24 10° SW 17:47:48 47° WNW 17:53:16 10° N
Cosmos 2233 Rocket 4.2 17:42:17 10° SSW 17:48:22 71° W 17:54:29 10° N
Cosmos 1726 1.7 17:46:50 10° SSW 17:49:37 66° W 17:52:26 10° N
Iridium 4 Rocket 2.8 17:48:09 10° N 17:52:16 64° E 17:54:06 31° SSE
CSL-04 Rocket 4.1 17:52:34 34° ESE 17:53:47 39° ENE 17:58:44 10° N
OAO 2 Rocket 4.2 17:50:34 10° WNW 17:55:10 39° N 17:57:13 27° NE
Cosmos 1898 Rocket 3.4 17:53:08 10° NNW 17:58:27 84° ENE 18:01:23 27° SSE
ARGOS Delta rocket 3.9 17:54:14 13° SSE 17:58:58 83° E 18:04:06 10° N
USA 215 3.1 17:52:38 10° NE 17:59:09 72° SE 18:05:40 10° SSW
Cosmos 1814 Rocket 3.9 17:57:58 10° S 18:03:17 77° ESE 18:08:35 10° NNE
SJ-6B 3.8 18:01:52 12° S 18:05:03 41° W 18:08:32 10° NNW
Cosmos 2322 4.0 17:59:38 10° SSW 18:05:13 66° WNW 18:10:51 10° NNE
CZ-3B Rocket 4.1 18:00:28 10° SW 18:05:48 38° SSE 18:10:33 30° ESE
Tsikada Rocket 4.3 18:08:48 10° NNW 18:15:01 66° W 18:21:17 10° S
CZ-4 R/B 2.0 18:14:00 37° SSW 18:15:04 49° W 18:18:44 10° NNW
USA 186 3.4 18:16:57 29° NNW 18:16:57 29° NNW 18:18:41 10° NNW
Cosmos 1844 Rocket 4.1 18:10:44 10° NW 18:15:51 35° WSW 18:20:55 10° SSW
Longmarch 3A Rocket 4.0 18:11:38 10° SW 18:16:44 60° SSE 18:46:58 10° E
Cosmos 1072 Rocket 4.5 18:15:45 37° SSE 18:18:14 62° E 18:24:33 10° NNE
Cosmos 1066 Rocket 4.2 18:12:57 10° N 18:18:49 72° E 18:19:59 56° SE
Palapa 6 Rocket 4.4 18:12:53 10° WSW 18:19:53 45° S 18:20:34 44° SSE
ATLAS CENTAUR R/B 3.4 18:14:15 10° NNW 18:20:30 66° NE 18:22:59 46° ESE
Hubble Space Telescope 2.4 18:17:53 10° W 18:20:33 25° SW 18:20:33 25° SW
GEOS 3 Rocket 4.0 18:19:36 37° S 18:21:31 61° WSW 18:26:41 10° NW
Meteor 1-14 Rocket 4.1 18:16:53 10° S 18:22:28 83° W 18:28:01 10° N
COSMOS 2428 3.3 18:17:43 10° SSW 18:23:17 56° WNW 18:28:54 10° N
ATLAS 3B R/B 3.0 18:15:30 10° NNW 18:23:19 75° WSW 18:27:02 33° SSE
Cosmos 1400 Rocket 4.5 18:23:16 10° N 18:24:57 25° N 18:24:57 25° N
CARTOSAT-1 3.8 18:27:56 63° W 18:27:56 63° W 18:32:04 10° NNW
CSL-04 Debris 4.1 18:27:30 61° S 18:28:31 86° WSW 18:34:01 10° NNW
ASC 2 Rocket 4.3 18:21:36 10° WSW 18:28:56 47° S 18:28:56 47° S
Lacrosse 4 Rocket 3.7 18:25:33 10° N 18:26:38 15° NNE 18:26:38 15° NNE
USA 229 DEB 4.1 18:22:18 10° NNW 18:30:01 61° ENE 18:31:31 53° ESE
USA 229 4.1 18:22:28 10° NNW 18:30:10 60° ENE 18:31:36 53° E
ACS3 Solar Sail 1.9 18:30:59 59° ENE 18:30:59 59° ENE 18:37:14 10° N
Okean O Rocket 2.9 18:34:20 33° N 18:34:20 33° N 18:36:50 10° N
NOSS 0 Rocket 3.9 18:26:54 10° SSW 18:33:06 84° WNW 18:39:23 10° NNE
Resurs 01 Rocket 2.2 18:34:51 51° WSW 18:34:59 52° W 18:39:19 10° NNW
Aurora 2 Rocket 4.1 18:33:00 10° WSW 18:36:30 33° SSW 18:36:30 33° SSW
Mugunghwa Rocket 4.4 18:37:34 10° W 18:43:20 46° SSW 18:43:20 46° SSW
MOS 1-B 4.3 18:46:13 74° SW 18:46:26 75° WSW 18:52:14 10° NNW
CZ-4B R/B 3.9 18:46:55 44° SW 18:48:05 51° W 18:53:24 10° NNW
Cosmos 2278 Rocket 4.1 18:53:38 10° N 18:55:23 18° NNE 18:55:23 18° NNE
Cosmos 2237 Rocket 4.5 19:21:57 16° N 19:21:57 16° N 19:23:01 10° N
USA 59 Rocket 3.0 19:22:19 10° NNW 19:22:35 12° NNW 19:22:35 12° NNW
ACS3 Solar Sail 4.2 20:16:17 15° W 20:16:17 15° W 20:18:57 10° WNW
